Location: Monroe
(41.9160°N, 83.3980°W)
Time: 00:27:02
(UTC-05:00)

Daily predictions for brighter satellites

Satellite Brightness Start Highest point End
(mag) Time Altitude Azimuth Time Altitude Azimuth Time Altitude Azimuth
ATLAS 5 CENTAUR R/B 4.2 03:46:24 20° NE 03:46:24 20° NE 03:48:03 10° NE
Cosmos 1943 Rocket 3.8 03:51:54 30° ENE 03:51:54 30° ENE 03:55:15 10° NE
CZ-4C R/B 4.2 03:54:44 20° ESE 03:54:59 20° ESE 03:58:57 10° ENE
CZ-4B R/B 4.3 03:58:46 10° NNE 04:03:30 42° E 04:03:30 42° E
ADEOS II 3.1 04:10:00 10° NNE 04:14:12 44° ENE 04:14:12 44° ENE
Okean O Rocket 4.1 04:18:53 10° NNE 04:19:45 16° NNE 04:19:45 16° NNE
PAYLOAD B 4.3 04:38:51 10° NNE 04:43:43 67° N 04:43:43 67° N
Nadezhda 2 Rocket 4.4 04:39:53 10° N 04:46:01 83° E 04:52:09 10° S
CZ-4B DEB 4.1 04:45:48 10° N 04:51:10 76° NW 04:51:10 76° NW
Cosmos 1656 Rocket 4.2 04:50:01 32° S 04:52:33 58° ESE 04:58:07 10° NNE
Cosmos 2219 4.2 04:47:51 10° NNW 04:53:19 45° ENE 04:58:41 10° SE
Cosmos 2369 Rocket 3.4 04:56:09 29° NNW 04:56:09 29° NNW 04:59:40 10° N
Meteor 1-31 Rocket 3.7 04:54:02 10° NNE 04:57:47 46° E 04:58:26 41° SE
ATLAS CENTAUR R/B 3.7 04:59:20 48° WSW 05:00:14 50° SW 05:15:09 10° SSE
GEOS 3 Rocket 3.4 04:57:23 10° SSE 05:02:28 76° SW 05:02:58 69° WNW
IRS-1C Rocket 4.5 04:57:55 10° N 05:02:06 47° NW 05:02:06 47° NW
Cosmos 2056 Rocket 4.4 05:05:06 34° NNW 05:05:06 34° NNW 05:08:38 10° N
Cosmos 1782 Rocket 3.8 05:02:41 10° N 05:07:10 70° E 05:11:34 10° SSE
Lacrosse 5 2.2 05:07:32 50° NW 05:07:32 50° NW 05:12:23 10° NE
Cosmos 1954 Rocket 3.9 05:05:36 10° NNW 05:10:57 87° WSW 05:16:16 10° SSE
Cosmos 1420 Rocket 4.2 05:13:54 14° S 05:18:22 69° ESE 05:23:33 10° NNE
Meteor 2-10 Rocket 3.3 05:17:38 33° SSW 05:19:54 74° W 05:25:00 10° N
Okean-O 2.5 05:16:46 10° NNE 05:21:14 89° WNW 05:23:59 23° SSW
Cosmos 1833 4.3 05:21:18 46° W 05:21:33 46° WSW 05:26:50 10° S
Tiangong 1 1.8 05:24:16 47° E 05:24:16 47° E 05:26:29 10° E
ERS-2 3.8 05:20:23 10° N 05:21:59 23° NNW 05:21:59 23° NNW
Feng Yun 1-1 Rocket 4.3 05:18:59 10° NNE 05:24:54 90° ESE 05:30:51 10° SSW
USA 234 3.2 05:19:03 10° NE 05:25:36 82° NW 05:29:16 29° WSW
ATLAS 5 CENTAUR R/B 2.9 05:27:58 28° NW 05:28:07 28° NW 05:32:36 10° NNE
Cosmos 1244 Rocket 4.4 05:23:18 10° NNW 05:29:25 60° W 05:35:27 10° S
Cosmos 1943 Rocket 2.9 05:33:28 31° WNW 05:33:57 32° NW 05:38:54 10° N
Okean 2 Rocket 2.9 05:31:20 10° N 05:35:45 78° W 05:40:07 10° S
Thor Agena Rocket 3.5 05:35:58 10° S 05:41:07 62° WSW 05:46:15 10° NNW
SL-08 R/B 4.4 05:35:15 10° N 05:41:35 76° W 05:47:54 10° S
Cosmos 1703 Rocket 4.0 05:41:19 37° W 05:41:37 37° WNW 05:45:42 10° N
Cosmos 1023 Rocket 4.5 05:36:44 10° NNW 05:41:54 60° WSW 05:47:04 10° S
CZ-4C R/B 2.2 05:39:58 28° WSW 05:42:46 61° NW 05:48:44 10° NNE
CZ-4B R/B 4.1 05:39:45 10° N 05:44:27 28° WNW 05:45:24 27° W
Cosmos 1452 Rocket 3.8 05:42:34 28° WSW 05:44:51 43° WNW 05:49:55 10° N
Meteor 1-28 Rocket 4.0 05:41:48 10° SSE 05:45:25 52° ENE 05:49:05 10° N
CZ-4B R/B 4.1 05:43:36 10° N 05:47:27 46° WNW 05:50:11 19° SW
ATLAS 3B R/B 3.3 05:40:13 10° SSW 05:47:41 65° ESE 05:54:56 10° NE
Lacrosse 5 rocket 2.7 05:48:27 11° NNW 05:51:28 29° NE 05:54:39 10° E
Meteor 1-20 Rocket 4.1 05:47:43 10° NNW 05:53:25 73° W 05:58:58 10° S
ADEOS II 3.2 05:50:27 10° NNW 05:54:28 23° WNW 05:55:09 22° WNW
Cosmos 2151 Rocket 3.7 05:50:51 10° N 05:55:23 80° E 05:59:52 10° S
S3M 4.0 05:50:02 10° SSW 05:56:17 62° W 06:02:31 10° N
Cosmos 1741 Rocket 3.9 05:51:20 10° NNW 05:56:34 74° WSW 06:01:49 10° S
Cosmos 1553 Rocket 4.1 05:56:57 10° SSW 06:02:57 52° WNW 06:09:07 10° N
Meteor 2-11 Rocket 4.4 05:59:00 10° S 06:05:06 82° W 06:11:18 10° N
COSMO-SKYMED 1 2.6 06:04:18 10° S 06:08:33 57° W 06:12:50 10° NNW
Cosmos 1606 2.6 06:06:08 10° SSW 06:09:58 68° W 06:13:53 10° N
Cosmos 1602 4.4 06:06:24 10° N 06:10:19 59° E 06:14:13 10° SSE
Cosmos 1782 2.9 06:06:35 10° SSW 06:10:26 50° WNW 06:14:19 10° N
CZ-2C R/B 4.2 06:08:19 10° NNE 06:12:53 37° E 06:17:32 10° SSE
Cosmos 1140 Rocket 4.2 06:08:23 10° NW 06:12:58 31° W 06:17:32 10° SSW
Cosmos 614 Rocket 4.4 06:12:42 10° NW 06:17:22 37° WSW 06:22:03 10° SSW
USA 81 4.2 06:15:20 10° SSW 06:20:27 52° W 06:25:37 10° N
Cosmos 2297 Rocket 3.0 06:15:43 10° NNW 06:21:17 56° ENE 06:26:49 10° SE
Okean 1-7 4.3 06:23:08 10° WSW 06:26:13 19° WNW 06:29:18 10° NNW
Meteor 2-6 Rocket 4.1 06:21:07 10° SSW 06:26:25 60° WNW 06:31:47 10° N
CSL-04 Debris 4.5 06:23:19 10° NNE 06:28:43 74° ESE 06:34:05 10° S
Cosmos 2278 4.0 06:24:35 10° SSW 06:30:12 76° ESE 06:35:52 10° NNE
Cosmos 1709 Rocket 3.9 06:27:50 10° N 06:33:57 76° W 06:40:04 10° S
Abrixas 4.1 06:34:27 10° NW 06:36:53 24° N 06:39:20 10° ENE
Cosmos 2219 4.1 06:32:33 10° NW 06:37:10 26° WSW 06:41:46 10° SSW
PAYLOAD A 3.8 06:34:55 10° NNE 06:39:41 84° WNW 06:44:33 10° SSW
YAOGAN 1 4.2 06:35:41 10° NNE 06:39:47 40° E 06:43:50 10° SSE
BREEZE M DEB (TANK) 4.2 06:28:40 10° W 06:39:59 42° NNW 06:43:46 10° ENE
Cosmos 2227 Rocket 2.2 06:35:52 10° NNW 06:41:34 79° WSW 06:47:13 10° SSE
